Location: *
(50.6089°N, 2.2719°E)
Time: 01:26:15
(UTC+00:00)

ADEOS Rocket - Pass Details

Date: 18 October 2019
Orbit: 859 x 1306 km, 98.7° (Epoch: 14 November)

Event Time Altitude Azimuth Distance (km) Brightness Sun altitude
Rises 20:21:06 0° 13° (NNE) 4,312 6.5 -32.9°
Reaches altitude 10° 20:23:52 10° 11° (NNE) 3,331 5.9 -33.3°
Maximum altitude 20:31:34 67° 292° (WNW) 1,366 3.7 -34.4°
Drops below altitude 10° 20:38:45 10° 212° (SSW) 3,127 5.6 -35.3°
Sets 20:41:17 0° 210° (SSW) 4,033 6.2 -35.7°
